Rochester, NY

11:56 PM EDT on April 28, 2017 (GMT -0400)
Greater Rochester International

Weather History for KROC - October, 2011

Change the Weather History Date:

Thursday, October 6, 2011

  Actual Average Record
Temperature  
Mean Temperature 51 °F 54 °F  
Max Temperature 65 °F 63 °F 87 °F (1900)
Min Temperature 37 °F 45 °F 27 °F (1958)
Degree Days  
Heating Degree Days 14 11  
Month to date heating degree days 75 63  
Since 1 July heating degree days 170 244  
Cooling Degree Days 0 0  
Month to date cooling degree days 0 0  
Year to date cooling degree days 694 534  
Moisture  
Dew Point 39 °F    
Average Humidity 64    
Maximum Humidity 92    
Minimum Humidity 36    
Precipitation  
Precipitation 0.00 in 0.09 in 2.35 in (1955)
Month to date precipitation 1.16 0.55  
Year to date precipitation 31.48 26.53  
Snow  
Snow 0.00 in 0.00 in T in (1935)
Month to date snowfall 0.0 0.0  
Since 1 July snowfall 0.0 0.0  
Since 1 September snowfall 0.0 0.0  
Snow Depth 0.00 in    
Sea Level Pressure  
Sea Level Pressure 30.39 in    
Wind  
Wind Speed 4 mph (SW)    
Max Wind Speed 12 mph    
Max Gust Speed 15 mph    
Visibility 10 miles    
Events      
T = Trace of Precipitation, MM = Missing Value Source: NWS Daily Summary

Daily Weather History Graph

Daily Weather History Graph

Search for Another Location

Airport or City:

Trip Planner

Search our weather history database for the weather conditions in past years. The results will help you decide how hot, cold, wet, or windy it might be!

Date:

Astronomy

Oct. 06, 2011 Rise Set
Actual Time 7:13 AM EDT 6:43 PM EDT
Civil Twilight 6:45 AM EDT 7:11 PM EDT
Nautical Twilight 6:12 AM EDT 7:44 PM EDT
Astronomical Twilight 5:38 AM EDT 8:17 PM EDT
Moon 4:02 PM EDT (10/6) 1:51 AM EDT (10/6)
Length of Visible Light 12h 26m
Length of Day
11h 30m
Waxing Gibbous, 75% of the Moon is Illuminated
Oct 6
Waxing Gibbous
Oct 11
Full
Oct 19
Last Quarter
Oct 26
New
Nov 2
First Quarter

Hourly Weather History & Observations

Time (EDT) Temp. Windchill Dew Point Humidity Pressure Visibility Wind Dir Wind Speed Gust Speed Precip Events Conditions
12:54 AM 42.1 °F - 39.9 °F 92% 30.38 in 10.0 mi Calm Calm - N/A   Partly Cloudy
1:54 AM 39.9 °F 37.8 °F 37.9 °F 93% 30.38 in 10.0 mi SW 3.5 mph - N/A   Clear
2:54 AM 39.9 °F 35.8 °F 37.9 °F 93% 30.39 in 10.0 mi SW 5.8 mph - N/A   Clear
3:54 AM 39.0 °F 36.8 °F 37.0 °F 93% 30.40 in 10.0 mi SW 3.5 mph - N/A   Clear
4:54 AM 37.9 °F 33.5 °F 36.0 °F 93% 30.40 in 10.0 mi SW 5.8 mph - N/A   Clear
5:54 AM 37.9 °F 34.4 °F 36.0 °F 93% 30.40 in 10.0 mi SW 4.6 mph - N/A   Clear
6:54 AM 37.9 °F 34.4 °F 36.0 °F 93% 30.40 in 10.0 mi SW 4.6 mph - N/A   Scattered Clouds
7:54 AM 37.0 °F 31.6 °F 36.0 °F 96% 30.42 in 10.0 mi SW 6.9 mph - N/A   Scattered Clouds
8:54 AM 42.1 °F 38.4 °F 37.9 °F 85% 30.43 in 10.0 mi WSW 5.8 mph - N/A   Partly Cloudy
9:54 AM 46.9 °F - 39.9 °F 77% 30.43 in 10.0 mi SW 5.8 mph - N/A   Partly Cloudy
10:54 AM 54.0 °F - 39.9 °F 59% 30.43 in 10.0 mi Calm Calm - N/A   Partly Cloudy
11:54 AM 57.9 °F - 37.0 °F 46% 30.43 in 10.0 mi SW 4.6 mph - N/A   Partly Cloudy
12:54 PM 60.1 °F - 37.0 °F 42% 30.40 in 10.0 mi Calm Calm - N/A   Clear
1:54 PM 60.1 °F - 34.0 °F 38% 30.38 in 10.0 mi Calm Calm - N/A   Clear
2:54 PM 63.0 °F - 37.9 °F 40% 30.36 in 10.0 mi Calm Calm - N/A   Partly Cloudy
3:54 PM 62.1 °F - 42.1 °F 48% 30.35 in 10.0 mi NNE 9.2 mph - 0.00 in   Partly Cloudy
4:29 PM 62.6 °F - 42.8 °F 48% 30.34 in 10.0 mi ENE 6.9 mph - N/A   Partly Cloudy
4:54 PM 61.0 °F - 42.1 °F 50% 30.35 in 10.0 mi NE 8.1 mph - N/A   Partly Cloudy
5:54 PM 57.0 °F - 37.9 °F 49% 30.36 in 10.0 mi NE 6.9 mph - N/A   Partly Cloudy
6:54 PM 53.1 °F - 39.0 °F 59% 30.37 in 10.0 mi NE 5.8 mph - N/A   Partly Cloudy
7:54 PM 50.0 °F - 41.0 °F 71% 30.38 in 10.0 mi Calm Calm - N/A   Partly Cloudy
8:54 PM 46.9 °F - 42.1 °F 83% 30.39 in 10.0 mi Calm Calm - N/A   Partly Cloudy
9:54 PM 45.0 °F - 42.1 °F 90% 30.39 in 10.0 mi Calm Calm - N/A   Scattered Clouds
10:54 PM 44.1 °F - 41.0 °F 89% 30.38 in 10.0 mi Calm Calm - N/A   Clear
11:54 PM 43.0 °F 41.3 °F 39.9 °F 89% 30.38 in 10.0 mi SW 3.5 mph - N/A   Clear